Regional Weather Roundup
Issued by NWS

Home | Current Version | Previous Version | Text Only | Print | Product List | Glossary Off
Versions: 1 2 3 4 5 6 7 8 9 10 11 12 13 14 15 16 17 18 19 20 21 22 23 24 25 26 27 28 29 30 31 32 33 34 35 36 37 38 39 40 41 42 43 44 45 46 47 48 49 50

000
ASUS43 KMKX 030400
RWRWI

WISCONSIN REGIONAL WEATHER ROUNDUP
NATIONAL WEATHER SERVICE MILWAUKEE/SULLIVAN WI
1000 PM CST FRI DEC 02 2016

NOTE: "FAIR" INDICATES FEW OR NO CLOUDS BELOW 12,000 FEET WITH NO
SIGNIFICANT WEATHER AND/OR OBSTRUCTIONS TO VISIBILITY.

WIZ001-002-006>008-014>016-023>028-030500-
NORTHWEST WISCONSIN

CITY           SKY/WX    TMP DP  RH WIND       PRES   REMARKS
SUPERIOR ARPT  CLOUDY    30  25  79 NW7       30.27S WCI  23
ASHLAND        CLOUDY    29  24  82 SW6       30.26F WCI  23
HAYWARD        CLOUDY    28  22  78 CALM      30.25S
SIREN          CLOUDY    29  25  82 W3        30.28R
CUMBERLAND     CLOUDY    28  23  80 W3        30.26R
RICE LAKE      CLOUDY    30  24  78 CALM      30.29R
CHETEK         CLOUDY    30  24  77 W6        30.27R WCI  24
LADYSMITH      CLOUDY    29  24  81 W5        30.28R WCI  24
EAU CLAIRE     NOT AVBL
MENOMONIE      CLOUDY    32  26  77 W5        30.29R WCI  27
NEW RICHMOND   CLOUDY    30  24  81 W3        30.29R
OSCEOLA        CLOUDY    30  24  79 NW3       30.32R
$$

WIZ003>005-009-010-017-018-030500-
NORTH CENTRAL WISCONSIN

CITY           SKY/WX    TMP DP  RH WIND       PRES   REMARKS
MANITOWISH WTR CLOUDY    28  28 100 W5        30.21S WCI  22
ARBOR VITAE    MIX PCPN  32  30  94 W6        30.21S WCI  26
WOODRUFF       MIX PCPN  32  30  94 W6        30.21S WCI  26
RHINELANDER    CLOUDY    30  28  92 W5        30.21S WCI  25
EAGLE RIVER    CLOUDY    29  26  86 W6        30.20S WCI  23
LAND O LAKES   CLOUDY    30  28  94 NW3       30.21F
PHILLIPS       CLOUDY    27  23  85 W3        30.23R
TOMAHAWK       CLOUDY    29  24  81 CALM      30.23S
MEDFORD        CLOUDY    28  22  78 NW5       30.24R WCI  22
MERRILL        CLOUDY    30  25  81 W5        30.25R WCI  25
$$

WIZ029-030-035-036-043>047-030500-
CENTRAL WISCONSIN

CITY           SKY/WX    TMP DP  RH WIND       PRES   REMARKS
WAUSAU         CLOUDY    30  23  75 W8        30.24R WCI  22
MOSINEE        CLOUDY    28  25  86 W7        30.26R WCI  21
MARSHFIELD     CLOUDY    29  22  75 W5        30.25R WCI  24
STEVENS POINT  CLOUDY    29  22  75 NW5       30.27S WCI  24
WAUPACA        CLOUDY    33  26  72 CALM      30.28R
WAUTOMA        CLOUDY    31  23  72 W5        30.30R WCI  26
WISC RAPIDS    CLOUDY    31  23  72 NW7       30.28S WCI  24
CAMP DOUGLAS   NOT AVBL
$$

WIZ011>013-019>022-031-037>040-048>050-030500-
NORTHEAST WISCONSIN

CITY           SKY/WX    TMP DP  RH WIND       PRES   REMARKS
ANTIGO         CLOUDY    29  24  82 N7        30.22S WCI  22
SHAWANO        CLOUDY    35  27  73 CALM      30.26R
OCONTO         CLOUDY    34  27  76 W3        30.24R
STURGEON BAY   CLOUDY    36  29  75 NW9       30.23S WCI  29
GREEN BAY      CLOUDY    35  29  78 W10       30.26R WCI  27
MANITOWOC      NOT AVBL
APPLETON       CLOUDY    32  25  74 W6        30.25R WCI  26
CLINTONVILLE   CLOUDY    32  27  80 W6        30.26R WCI  26
OSHKOSH        CLOUDY    32  24  72 W6        30.28R WCI  26
$$

WIZ032>034-041-042-053>061-030500-
SOUTHWEST WISCONSIN

CITY           SKY/WX    TMP DP  RH WIND       PRES   REMARKS
LA CROSSE      CLOUDY    34  22  61 W8        30.31S WCI  27
SPARTA         CLOUDY    32  25  74 W5        30.31R WCI  27
VIROQUA        CLOUDY    30  24  78 W3        30.28S
BOSCOBEL       CLOUDY    33  22  63 CALM      30.33S
PRAIRIE DU CHI CLOUDY    32  21  64 NW7       30.33S WCI  26
PLATTEVILLE    CLOUDY    31  25  77 NW6       30.32S WCI  26
$$

WIZ056-057-062-063-064-067-068-030500-
SOUTH CENTRAL WISCONSIN

CITY           SKY/WX    TMP DP  RH WIND       PRES   REMARKS
REEDSBURG      CLOUDY    30  23  75 W3        30.30S
BARABOO/DELLS  CLOUDY    30  23  74 W3        30.30R
LONE ROCK      NOT AVBL
MINERAL POINT  CLOUDY    32  27  80 CALM      30.29S
MADISON        CLOUDY    31  21  66 W3        30.31R
MIDDLETON      CLOUDY    32  25  74 NW6       30.30S WCI  26
WATERTOWN      CLOUDY    31  25  76 W5        30.30R WCI  27
MONROE         CLOUDY    32  25  74 W7        30.30R WCI  26
JANESVILLE     CLOUDY    34  25  69 W3        30.31R
$$

WIZ051-052-058>065-066-070>072-030500-
SOUTHEAST WISCONSIN

CITY           SKY/WX    TMP DP  RH WIND       PRES   REMARKS
MILWAUKEE      CLOUDY    34  23  64 NW7       30.30R WCI  28
WAUKESHA       CLOUDY    30  23  74 W6        30.30S WCI  24
MILWAUKEE/TIMM CLOUDY    32  23  69 W7        30.30S WCI  26
RACINE         CLOUDY    34  23  64 W5        30.32R WCI  30
BURLINGTON     CLOUDY    32  25  74 CALM      30.30S
KENOSHA        CLOUDY    33  25  72 W7        30.31R WCI  27
FOND DU LAC    CLOUDY    32  22  66 W8        30.29R WCI  25
SHEBOYGAN      CLOUDY    33  26  75 W8        30.28R WCI  26
WEST BEND      CLOUDY    32  27  80 W6        30.28S WCI  26
JUNEAU         CLOUDY    30  22  72 W3        30.30R
$$

LSZ147-162-030500-
LAKE SUPERIOR

STATION/POSITION TIME  TEMP    WIND        PRES    WAVE
                       AIR SEA DIR/SP/G            HT/PER
                 (UTC) (F)     (DEG/KT/KT) (MB)    (FT/S)
DEVILS ISLAND    0300   33     260/ 10/ 12 1025.1R
PORT WING        0330   31     200/  5/  8 1024.7S
SAXON HARBOR     0340   31     210/  5/  8 1024.4S
$$

LMZ867-665-643>646-030500-
LAKE MICHIGAN

STATION/POSITION TIME  TEMP    WIND        PRES    WAVE
                       AIR SEA DIR/SP/G            HT/PER
                 (UTC) (F)     (DEG/KT/KT) (MB)    (FT/S)
CHAMBERS ISLAND  0340   37     280/  6/  9 1023.0S
NORTHPORT PIER   0340   38     310/ 10/ 16 1023.0S
SISTER BAY       0253   38     330/ 14/ 17   N/A
ALGOMA LAKESHORE 0251          320/  3/  6   N/A
KEWAUNEE LAKESHO 0330   35     280/  6/  9 1023.2S
SHEBOYGAN LAKESH 0300   34     270/ 10/ 12 1025.6R
PORT WASHINGTON  0340   34     300/  5/  9 1026.8R
MILWAUKEE LAKESH 0330   34     280/  7/  8   N/A
S MID LAKE BUOY  0250   36 49  280/  8/ 12 1025.9R   2/ 5
KENOSHA   LAKESH 0300   35     320/  5/  7 1025.7
$$

TC  - TEMPERATURE IN CELSIUS
VSB - VISIBILITY IN STATUTE MILES
WCI - WIND CHILL INDEX
HX  - HEAT INDEX





USA.gov is the U.S. government's official web portal to all federal, state and local government web resources and services.